Showing default

DODGE 1, 2867

Orbit data source: Space-Track

DODGE 1, 2867 is a payload satellite owned by USN NAVAIR (US) in GEO that was launched on Sat, 01 Jul 1967 UTC via a TITAN IIIC launch vehicle from the Air Force Eastern Test Range (AFETR). Payload-class satellites include a variety of spacecraft equipped with specific instruments for various scientific and technological missions. These include communications satellites like Starlink; space stations such as the ISS; scientific satellites like the Hubble; Earth observation satellites from companies like Planet Labs, Umbra, and HawkEye 360; GPS; miniature CubeSats for education and research; and military/defense satellites.

Loading next visibility...
Identifier
2867, 1967-066F
Orbit
GEO
Country
Flag of USUS
Related business
Manufacturer
APL
Mission
Spacecraft
Bus & Motor
DODGE, Unknown motor
Mass
195 kg wet, 195 kg dry
Launch date (UTC)
1967-07-01 (59 years ago)
Launch vehicle
TITAN IIIC
Launch site
Air Force Eastern Test Range (AFETR)
Object type
Payload
Rocket body
Debris
Shape & HBR
Unknown
Radar Cross Section
Large (>1 m²)

Expand to show TLE details & history
Last TLE update: 6 hours ago

TLE from 6 hours ago
0 DODGE 1
1 02867U 67066F   26110.53471537 -.00000054  00000-0  00000-0 0  9993
2 02867   2.3622  99.5298 0053443 191.5216 295.4053  1.09167395132753
Epoch: 2026-04-20T12:49Z
TLE epoch observation values (Epoch: 2026-04-20T12:49:59.407Z)
Latitude
1.89461°
Longitude
-175.19596°
Altitude
33,372.607 km
Speed
3.17 km/s
True Right ascension
15h 03m 42s
True Declination
1° 53' 33"
Sunlit
Object was in daylight at epoch
Visualization orbit readout
Latitude
Unknown
Longitude
Unknown
Altitude
Unknown
Speed
Unknown
Apparent Right ascension
Unknown
Apparent Declination
Unknown
Sunlit
N/A
Visualization observer readout
Local Sidereal Time
02:04:07
Azimuth
Unknown
Elevation
Unknown
Doppler factor
Unknown
Orbital elements
Apogee altitude
33,677.808 km
Perigee altitude
33,251.942 km
Semi-major axis
39,843.012 km
Eccentricity
0.00534
Inclination
2.3622°
RAAN
99.5298°
Arg. of periapsis
191.5216°
True anomaly
294.85053°
Mean anomaly
295.4053°
Eccentric anomaly
295.12807°
Mean motion
0.27291 °/min
Orbital period
1,319.13 mins
BSTAR
0
Loading maneuver chart data...
Computing Atmospheric mass density...
Loading historical data...
Loading historical data...
Loading historical data...
Loading historical data...
Loading historical data...
Loading historical data...
Loading historical data...

Documentation

Showing up to 5 results
|